EW4529 Weather Reports


Display with metric or nautical units.
time (UTC)temp
F
wind
direction
speed
MPH
gust
MPH
rain 1hr
in
rain 24hr
in
rain mn
in
humidity
%
barometer
mb
20260903212326 91 278 0.0 1.0 0.00 1.57 1.57 59 1012.4
20260903211310 91 70 0.0 5.0 0.00 1.57 1.57 56 1012.5
20260903210326 92 141 0.0 4.0 0.00 1.57 1.57 56 1012.5
20260903205310 93 273 0.0 2.0 0.00 1.57 1.57 55 1012.5
20260903204311 93 101 0.0 2.0 0.00 1.57 1.57 56 1012.5
20260903203325 92 144 0.0 4.0 0.00 1.57 1.57 60 1012.6
20260903202323 92 217 0.0 3.0 0.00 1.57 1.57 54 1012.7
20260903201321 91 235 1.0 4.0 0.00 1.57 1.57 59 1012.9
20260903200324 91 105 0.0 3.0 0.00 1.57 1.57 59 1012.9
20260903195324 91 24 1.0 6.0 0.00 1.57 1.57 56 1013.0
20260903194323 91 90 0.0 4.0 0.00 1.57 1.57 59 1013.0
20260903193317 91 195 2.0 5.0 0.00 1.57 1.57 58 1013.1
20260903192315 91 128 2.0 6.0 0.00 1.57 1.57 60 1013.3
20260903191316 91 244 1.0 6.0 0.00 1.57 1.57 59 1013.5
20260903190309 90 137 1.0 8.0 0.00 1.57 1.57 62 1013.8
20260903185334 90 13 2.0 4.0 0.00 1.58 1.57 63 1013.8
20260903184328 90 176 0.0 4.0 0.00 1.58 1.57 66 1014.0
20260903183329 89 163 0.0 5.0 0.00 1.58 1.57 65 1013.9
20260903182334 89 295 1.0 4.0 0.00 1.58 1.57 68 1013.9
20260903181334 89 344 1.0 5.0 0.00 1.58 1.57 65 1014.1
20260903180333 89 136 1.0 8.0 0.00 1.58 1.57 66 1014.1
20260903175355 88 178 1.0 6.0 0.00 1.60 1.57 68 1014.2
20260903174335 89 155 2.0 4.0 0.00 1.60 1.57 66 1014.3
20260903173326 88 107 1.0 4.0 0.00 1.60 1.57 69 1014.4
20260903172310 87 61 0.0 4.0 0.00 1.60 1.57 66 1014.6
20260903171329 88 295 2.0 8.0 0.00 1.60 1.57 66 1014.8
20260903170322 88 287 0.0 2.0 0.00 1.60 1.57 70 1014.9
20260903165318 87 107 1.0 6.0 0.00 1.60 1.57 70 1015.0
20260903164317 86 167 0.0 5.0 0.00 1.60 1.57 71 1015.0
20260903163309 86 322 0.0 4.0 0.00 1.60 1.57 73 1015.2
20260903162324 85 230 0.0 4.0 0.00 1.60 1.57 78 1015.5
20260903161326 85 127 0.0 3.0 0.00 1.60 1.57 78 1015.8
20260903160344 83 243 0.0 3.0 0.00 1.60 1.57 78 1016.0
20260903155317 83 263 0.0 3.0 0.00 1.60 1.57 79 1016.5
20260903154326 83 228 1.0 9.0 0.00 1.60 1.57 79 1016.1
20260903153316 83 264 1.0 5.0 0.00 1.60 1.57 81 1016.0
20260903152314 81 245 0.0 5.0 0.00 1.60 1.57 88 1015.9
20260903151331 80 233 0.0 3.0 0.00 1.60 1.57 87 1016.3
20260903150332 80 248 0.0 3.0 0.00 1.60 1.57 88 1016.2
20260903145328 79 238 0.0 2.0 0.00 1.60 1.57 91 1016.1
20260903144355 78 234 0.0 3.0 0.00 1.60 1.57 93 1016.0
20260903143324 77 306 1.0 3.0 0.00 1.60 1.57 94 1016.0
20260903142320 76 154 0.0 3.0 0.00 1.60 1.57 96 1016.0
20260903141321 76 119 1.0 4.0 0.00 1.60 1.57 97 1016.1
20260903140338 76 327 0.0 1.0 0.00 1.60 1.57 97 1016.1
20260903135325 76 250 1.0 3.0 0.00 1.60 1.57 98 1015.9
20260903134325 75 107 0.0 3.0 0.00 1.60 1.57 98 1015.4
20260903133322 75 134 1.0 4.0 0.00 1.60 1.57 98 1015.4
20260903132324 75 148 1.0 4.0 0.00 1.60 1.57 98 1015.3
20260903131328 74 108 1.0 3.0 0.00 1.60 1.57 98 1015.5
20260903130332 74 226 0.0 4.0 0.01 1.60 1.57 98 1015.7
20260903125335 73 98 0.0 3.0 0.01 1.60 1.57 98 1015.6
20260903124325 73 288 0.0 5.0 0.01 1.60 1.57 98 1015.6
20260903123328 72 221 0.0 4.0 0.01 1.60 1.57 98 1015.5
20260903122332 72 166 0.0 4.0 0.01 1.60 1.57 98 1015.4
20260903121318 71 115 0.0 7.0 0.01 1.60 1.57 98 1015.3
20260903120313 71 57 1.0 6.0 0.00 1.59 1.56 98 1015.1
20260903115313 71 115 1.0 4.0 0.00 1.59 1.56 98 1015.6
20260903114330 71 77 0.0 3.0 0.00 1.59 1.56 98 1016.1
20260903113311 71 328 0.0 4.0 0.00 1.59 1.56 98 1016.3
20260903112316 70 141 0.0 4.0 0.00 1.59 1.56 98 1016.4
20260903111317 70 124 0.0 1.0 0.00 1.59 1.56 98 1016.7
20260903110316 70 291 1.0 3.0 0.00 1.59 1.56 98 1017.0
20260903105316 70 118 0.0 3.0 0.00 1.60 1.56 98 1017.1
20260903104320 71 264 0.0 3.0 0.01 1.60 1.56 98 1017.2
20260903103320 70 136 1.0 2.0 0.02 1.60 1.56 98 1016.3
20260903102323 71 64 2.0 4.0 0.05 1.60 1.56 98 1017.0
20260903101320 70 138 0.0 4.0 0.08 1.60 1.56 98 1016.1
20260903100325 70 131 0.0 3.0 0.09 1.60 1.56 98 1016.1
20260903095326 70 130 0.0 2.0 0.10 1.60 1.56 98 1016.8
20260903094327 70 150 0.0 2.0 0.13 1.59 1.55 98 1016.4
20260903093331 70 133 0.0 2.0 0.31 1.58 1.54 98 1017.1
20260903092312 70 161 0.0 4.0 0.51 1.54 1.50 98 1017.4
20260903091319 70 136 0.0 0.0 0.51 1.52 1.48 98 1017.2
20260903090319 70 137 0.0 2.0 0.50 1.51 1.47 98 1016.7
20260903085323 70 146 1.0 5.0 0.51 1.50 1.46 98 1017.1
20260903084325 70 146 1.0 3.0 0.57 1.45 1.41 98 1017.9
20260903083322 70 279 1.0 3.0 0.40 1.27 1.23 98 1018.9
20260903082325 70 261 0.0 2.0 0.16 1.03 0.99 98 1018.7
20260903081355 70 212 0.0 4.0 0.14 1.01 0.97 98 1017.8
20260903080332 70 8 0.0 1.0 0.14 1.01 0.97 98 1017.3
20260903075315 70 42 0.0 1.0 0.09 0.96 0.92 98 1017.1
20260903074315 70 31 0.0 0.0 0.01 0.88 0.84 98 1017.7
20260903073314 70 32 0.0 0.0 0.01 0.87 0.83 98 1017.1
20260903072318 70 32 0.0 0.0 0.02 0.87 0.83 98 1017.1
20260903071315 70 1 0.0 1.0 0.04 0.87 0.83 98 1017.0
20260903070319 70 1 0.0 0.0 0.11 0.87 0.83 97 1017.2
20260903065342 70 1 0.0 0.0 0.64 0.87 0.83 97 1017.4
20260903064325 70 1 0.0 0.0 0.83 0.87 0.83 97 1017.2
20260903063340 70 1 0.0 1.0 0.82 0.86 0.82 97 1017.4
20260903062328 70 101 0.0 2.0 0.81 0.85 0.81 97 1017.6
20260903061312 70 156 0.0 3.0 0.79 0.83 0.79 97 1017.7
20260903060309 70 331 0.0 8.0 0.71 0.75 0.71 97 1018.8
20260903055312 71 354 1.0 4.0 0.08 0.12 0.08 97 1020.2
20260903054333 70 351 1.0 4.0 0.00 0.04 0.00 97 1018.5
20260903053312 71 233 1.0 3.0 0.00 0.04 0.00 97 1018.2
20260903052316 71 344 0.0 5.0 0.00 0.04 0.00 97 1018.3
20260903051317 71 90 0.0 1.0 0.00 0.04 0.00 97 1018.3
20260903050318 71 139 0.0 0.0 0.00 0.04 0.00 97 1018.2
20260903045322 71 139 0.0 1.0 0.00 0.04 0.00 97 1018.1
20260903044356 71 139 0.0 1.0 0.00 0.04 0.00 97 1017.9
20260903043311 71 124 0.0 0.0 0.00 0.04 0.00 97 1018.0
20260903042334 71 124 0.0 0.0 0.00 0.04 0.00 97 1018.2
20260903041313 71 124 0.0 0.0 0.00 0.04 0.00 97 1018.4
20260903040355 71 133 0.0 0.0 0.00 0.04 0.00 97 1018.6
20260903035315 71 133 0.0 1.0 0.00 0.04 0.04 97 1018.6
20260903034317 71 124 0.0 1.0 0.00 0.04 0.04 97 1018.8
20260903032321 71 133 1.0 2.0 0.00 0.04 0.04 97 1018.4
20260903031349 71 166 0.0 2.0 0.00 0.04 0.04 97 1018.5
20260903030324 71 143 0.0 2.0 0.00 0.04 0.04 97 1018.5
20260903025327 71 64 0.0 0.0 0.00 0.04 0.04 97 1018.6
20260903024320 71 63 0.0 0.0 0.00 0.04 0.04 97 1018.8
20260903023325 71 63 0.0 1.0 0.00 0.04 0.04 97 1018.6
20260903022328 71 351 0.0 1.0 0.00 0.04 0.04 97 1018.7
20260903021327 71 136 0.0 2.0 0.00 0.04 0.04 97 1018.5
20260903020346 71 127 0.0 2.0 0.00 0.04 0.04 97 1018.2
20260903015328 71 150 0.0 2.0 0.00 0.05 0.04 96 1018.1
20260903014311 71 109 0.0 2.0 0.00 0.05 0.04 96 1018.4
20260903013313 71 197 0.0 3.0 0.00 0.05 0.04 96 1018.4
20260903012319 71 101 0.0 2.0 0.00 0.05 0.04 96 1018.5
20260903011344 71 207 0.0 1.0 0.00 0.05 0.04 96 1018.6
20260903010322 71 55 0.0 0.0 0.00 0.05 0.04 96 1018.8
20260903005327 71 54 0.0 0.0 0.00 0.48 0.04 96 1018.6
20260903004332 71 1 0.0 0.0 0.00 0.48 0.04 96 1018.6
20260903003336 71 318 0.0 0.0 0.00 0.48 0.04 96 1018.4
20260903002318 71 314 0.0 1.0 0.00 0.48 0.04 96 1018.5
20260903001326 71 131 0.0 1.0 0.00 0.48 0.04 96 1018.4
20260903000325 71 138 0.0 0.0 0.00 0.48 0.04 96 1018.2
20260902235328 71 138 0.0 0.0 0.00 0.58 0.04 96 1018.1
20260902234331 71 138 0.0 1.0 0.00 0.58 0.04 96 1018.1
20260902233329 71 137 0.0 1.0 0.00 0.58 0.04 96 1018.2
20260902232329 71 137 0.0 0.0 0.00 0.58 0.04 96 1018.1
20260902231314 72 144 0.0 1.0 0.00 0.58 0.04 96 1018.0
20260902230318 72 129 0.0 1.0 0.00 0.58 0.04 96 1018.2
20260902225315 72 149 0.0 3.0 0.00 0.58 0.04 96 1018.3
20260902224317 72 199 0.0 2.0 0.00 0.58 0.04 96 1018.4
20260902223342 72 143 0.0 1.0 0.00 0.58 0.04 96 1018.4
20260902222327 72 146 0.0 0.0 0.00 0.58 0.04 96 1018.7
20260902221332 72 148 0.0 0.0 0.00 0.58 0.04 96 1018.9
20260902220309 72 147 0.0 0.0 0.00 0.58 0.04 96 1018.8
20260902215315 72 147 0.0 2.0 0.00 0.58 0.04 96 1018.8
20260902214316 72 139 0.0 3.0 0.00 0.58 0.04 96 1018.6
20260902213316 72 233 0.0 5.0 0.00 0.58 0.04 96 1018.6